DW2057 Weather Reports


time (UTC)temp
C
wind
direction
speed
KPH
gust
KPH
rain 1hr
cm
rain 24hr
cm
rain mn
cm
humidity
%
barometer
mb
20260505074047 16 73 1.6 3.2 0.00 0.00 0.00 18 1024.0
20260505074004 16 73 1.6 4.8 0.00 0.00 0.00 18 1030.3
20260505073544 16 11 4.8 8.0 0.00 0.00 0.00 18 1023.8
20260505073043 16 35 0.0 4.8 0.00 0.00 0.00 19 1023.8
20260505073010 16 35 0.0 6.4 0.00 0.00 0.00 19 1030.1
20260505072538 16 100 3.2 3.2 0.00 0.00 0.00 17 1023.5
20260505072504 16 100 3.2 4.8 0.00 0.00 0.00 17 1029.9
20260505072035 16 36 3.2 9.7 0.00 0.00 0.00 17 1023.5
20260505072005 16 36 3.2 9.7 0.00 0.00 0.00 17 1029.9
20260505071530 16 110 4.8 8.0 0.00 0.00 0.00 16 1023.4
20260505071505 16 110 4.8 8.0 0.00 0.00 0.00 16 1029.8
20260505071029 17 101 3.2 4.8 0.00 0.00 0.00 15 1023.4
20260505071004 17 101 3.2 6.4 0.00 0.00 0.00 15 1029.8
20260505070526 17 150 3.2 9.7 0.00 0.00 0.00 16 1023.4
20260505070506 17 150 3.2 9.7 0.00 0.00 0.00 16 1029.8
20260505070022 17 101 1.6 8.0 0.00 0.00 0.00 14 1023.2
20260505070005 17 101 1.6 8.0 0.00 0.00 0.00 14 1029.6
20260505065518 17 89 1.6 4.8 0.00 0.00 0.00 15 1023.2
20260505065014 17 101 1.6 9.7 0.00 0.00 0.00 14 1023.0
20260505065005 17 101 3.2 9.7 0.00 0.00 0.00 14 1029.4
20260505064512 18 116 3.2 14.5 0.00 0.00 0.00 13 1023.0
20260505064505 18 116 3.2 16.1 0.00 0.00 0.00 13 1029.4
20260505064010 18 166 4.8 8.0 0.00 0.00 0.00 12 1023.0
20260505064004 18 166 6.4 8.0 0.00 0.00 0.00 12 1029.4
20260505063507 18 192 9.7 12.9 0.00 0.00 0.00 12 1022.9
20260505063505 18 192 11.3 14.5 0.00 0.00 0.00 12 1029.3
20260505063004 18 88 3.2 6.4 0.00 0.00 0.00 10 1029.3
20260505063002 18 88 3.2 4.8 0.00 0.00 0.00 10 1022.9
20260505062505 18 96 3.2 8.0 0.00 0.00 0.00 7 1029.2
20260505062459 18 96 3.2 8.0 0.00 0.00 0.00 7 1022.8
20260505061956 18 184 4.8 8.0 0.00 0.00 0.00 7 1022.9
20260505061504 18 224 3.2 4.8 0.00 0.00 0.00 9 1029.4
20260505061454 18 273 0.0 3.2 0.00 0.00 0.00 7 1023.0
20260505061005 17 196 3.2 3.2 0.00 0.00 0.00 8 1029.4
20260505060951 17 197 0.0 1.6 0.00 0.00 0.00 8 1023.0
20260505060449 17 175 0.0 3.2 0.00 0.00 0.00 7 1022.9
20260505060005 17 187 3.2 6.4 0.00 0.00 0.00 7 1029.3
20260505055945 17 187 4.8 4.8 0.00 0.00 0.00 7 1023.1
20260505055504 17 131 6.4 8.0 0.00 0.00 0.00 6 1029.3
20260505055441 17 162 4.8 9.7 0.00 0.00 0.00 8 1023.2
20260505055005 17 120 3.2 8.0 0.00 0.00 0.00 7 1029.3
20260505054938 17 151 4.8 8.0 0.00 0.00 0.00 7 1023.0
20260505054435 17 105 1.6 4.8 0.00 0.00 0.00 8 1023.0
20260505054005 17 355 1.6 6.4 0.00 0.00 0.00 7 1029.3
20260505053933 18 8 4.8 4.8 0.00 0.00 0.00 7 1023.0
20260505053505 18 181 4.8 4.8 0.00 0.00 0.00 7 1029.3
20260505053430 18 246 1.6 3.2 0.00 0.00 0.00 7 1023.0
20260505052927 18 301 1.6 4.8 0.00 0.00 0.00 8 1023.1
20260505052424 17 213 0.0 1.6 0.00 0.00 0.00 8 1023.0
20260505052005 18 210 4.8 6.4 0.00 0.00 0.00 7 1029.6
20260505051921 18 198 1.6 8.0 0.00 0.00 0.00 7 1023.1
20260505051418 17 299 1.6 3.2 0.00 0.00 0.00 9 1023.1
20260505050916 18 287 4.8 8.0 0.00 0.00 0.00 7 1023.1
20260505050505 17 220 4.8 9.7 0.00 0.00 0.00 8 1029.4
20260505050414 17 172 8.0 9.7 0.00 0.00 0.00 7 1023.1
20260505041505 18 219 4.8 4.8 0.00 0.00 0.00 6 1030.1
20260505041341 17 182 1.6 3.2 0.00 0.00 0.00 6 1023.8
20260505040838 16 189 4.8 8.0 0.00 0.00 0.00 9 1023.9
20260505040336 17 159 8.0 12.9 0.00 0.00 0.00 7 1023.9
20260505035833 18 260 1.6 4.8 0.00 0.00 0.00 6 1024.0
20260505035505 17 202 3.2 4.8 0.00 0.00 0.00 10 1030.0
20260505035328 16 266 3.2 8.0 0.00 0.00 0.00 10 1023.8
20260505035004 16 182 3.2 9.7 0.00 0.00 0.00 14 1030.3
20260505034826 16 98 6.4 9.7 0.00 0.00 0.00 13 1023.8
20260505034322 16 205 4.8 12.9 0.00 0.00 0.00 11 1023.9
20260505033820 17 300 1.6 8.0 0.00 0.00 0.00 9 1024.0
20260505033316 16 219 1.6 4.8 0.00 0.00 0.00 11 1024.0
20260505032815 17 313 3.2 4.8 0.00 0.00 0.00 12 1024.0
20260505032505 17 318 1.6 6.4 0.00 0.00 0.00 14 1030.4
20260505032310 17 283 3.2 3.2 0.00 0.00 0.00 13 1024.2
20260505032004 17 209 4.8 8.0 0.00 0.00 0.00 12 1030.4
20260505031808 17 209 4.8 8.0 0.00 0.00 0.00 13 1024.1
20260505031304 17 324 1.6 4.8 0.00 0.00 0.00 15 1024.1
20260505031005 16 260 1.6 4.8 0.00 0.00 0.00 16 1030.5
20260505030802 16 198 9.7 14.5 0.00 0.00 0.00 15 1023.9
20260505030258 16 215 6.4 8.0 0.00 0.00 0.00 16 1024.0
20260505030005 16 22 3.2 9.7 0.00 0.00 0.00 17 1030.4
20260505025753 16 247 1.6 8.0 0.00 0.00 0.00 15 1024.2
20260505025505 16 170 6.4 11.3 0.00 0.00 0.00 17 1030.2
20260505025251 17 317 4.8 8.0 0.00 0.00 0.00 16 1024.0
20260505024749 16 222 1.6 1.6 0.00 0.00 0.00 18 1024.1
20260505024246 16 211 3.2 11.3 0.00 0.00 0.00 18 1024.2
20260505023744 17 191 4.8 4.8 0.00 0.00 0.00 18 1024.3
20260505023505 16 275 4.8 6.4 0.00 0.00 0.00 16 1030.4
20260505023240 16 231 3.2 4.8 0.00 0.00 0.00 16 1024.1
20260505022738 17 292 1.6 8.0 0.00 0.00 0.00 16 1024.1
20260505022504 17 335 3.2 6.4 0.00 0.00 0.00 17 1030.5
20260505022235 16 285 0.0 3.2 0.00 0.00 0.00 19 1024.2
20260505022005 16 203 6.4 11.3 0.00 0.00 0.00 19 1030.6
20260505021731 16 239 1.6 4.8 0.00 0.00 0.00 16 1024.0
20260505021228 15 317 4.8 9.7 0.00 0.00 0.00 18 1024.1
20260505021005 15 283 6.4 11.3 0.00 0.00 0.00 19 1030.5
20260505020724 15 294 3.2 9.7 0.00 0.00 0.00 19 1024.5
20260505020504 15 249 4.8 9.7 0.00 0.00 0.00 19 1030.7
20260505020219 15 267 4.8 8.0 0.00 0.00 0.00 20 1024.4
20260505020004 15 255 8.0 9.7 0.00 0.00 0.00 22 1030.7
20260505015717 16 219 6.4 8.0 0.00 0.00 0.00 20 1024.2
20260505015505 15 255 4.8 11.3 0.00 0.00 0.00 19 1030.6
20260505015214 16 282 4.8 8.0 0.00 0.00 0.00 20 1024.0
20260505015005 16 282 1.6 6.4 0.00 0.00 0.00 21 1030.6
20260505014711 15 282 3.2 4.8 0.00 0.00 0.00 23 1024.3
20260505014208 15 182 3.2 4.8 0.00 0.00 0.00 22 1024.3
20260505013705 14 285 3.2 11.3 0.00 0.00 0.00 24 1024.2
20260505013202 15 272 3.2 4.8 0.00 0.00 0.00 22 1024.5
20260505013005 15 250 1.6 4.8 0.00 0.00 0.00 24 1030.5
20260505012700 14 231 3.2 8.0 0.00 0.00 0.00 25 1024.4
20260505012504 14 225 4.8 6.4 0.00 0.00 0.00 25 1030.5
20260505012157 14 251 8.0 9.7 0.00 0.00 0.00 24 1024.4
20260505012005 13 249 4.8 8.0 0.00 0.00 0.00 25 1030.7
20260505011653 13 271 4.8 8.0 0.00 0.00 0.00 28 1024.2
20260505011150 12 266 3.2 4.8 0.00 0.00 0.00 28 1024.2
20260505011005 13 253 8.0 11.3 0.00 0.00 0.00 27 1030.9
20260505010645 12 258 4.8 9.7 0.00 0.00 0.00 30 1024.3
20260505010143 13 246 1.6 4.8 0.00 0.00 0.00 28 1024.4
20260505005638 13 318 3.2 8.0 0.00 0.00 0.00 29 1024.5
20260505005505 13 221 3.2 8.0 0.00 0.00 0.00 29 1030.7
20260505005136 12 289 1.6 4.8 0.00 0.00 0.00 28 1024.5
20260505004633 12 274 1.6 14.5 0.00 0.00 0.00 29 1024.4
20260505004505 13 170 6.4 9.7 0.00 0.00 0.00 27 1030.8
20260505004129 13 272 3.2 8.0 0.00 0.00 0.00 28 1024.4
20260505003626 12 198 1.6 3.2 0.00 0.00 0.00 30 1024.3
20260505003505 12 253 3.2 6.4 0.00 0.00 0.00 29 1030.7
20260505003124 12 241 1.6 8.0 0.00 0.00 0.00 30 1024.4
20260505003004 12 168 4.8 6.4 0.00 0.00 0.00 30 1030.7
20260505002620 11 213 1.6 3.2 0.00 0.00 0.00 32 1024.4
20260505002510 12 316 3.2 9.7 0.00 0.00 0.00 29 1030.7
20260505002118 11 215 3.2 4.8 0.00 0.00 0.00 33 1024.3
20260505002005 11 341 3.2 6.4 0.00 0.00 0.00 34 1030.6
20260505001615 11 318 8.0 11.3 0.00 0.00 0.00 32 1024.4
20260505001505 11 282 3.2 8.0 0.00 0.00 0.00 35 1030.3
20260505001113 10 189 0.0 8.0 0.00 0.00 0.00 38 1024.2
20260505001005 11 279 4.8 8.0 0.00 0.00 0.00 37 1030.4
20260505000609 11 228 3.2 9.7 0.00 0.00 0.00 37 1024.2
20260505000505 10 258 3.2 9.7 0.00 0.00 0.00 38 1030.3
20260505000108 10 225 4.8 9.7 0.00 0.00 0.00 38 1024.2
20260505000005 10 176 6.4 9.7 0.00 0.00 0.00 38 1030.4
20260504235604 11 211 4.8 8.0 0.00 0.00 0.00 36 1024.2
20260504235505 11 277 4.8 8.0 0.00 0.00 0.00 39 1030.7
20260504235100 10 291 1.6 4.8 0.00 0.00 0.00 38 1024.2
20260504235004 10 338 4.8 8.0 0.00 0.00 0.00 40 1030.5
20260504234557 10 247 3.2 4.8 0.00 0.00 0.00 40 1024.2
20260504234507 10 221 6.4 6.4 0.00 0.00 0.00 41 1030.6
20260504234054 10 224 1.6 4.8 0.00 0.00 0.00 41 1024.2
20260504234005 10 300 6.4 6.4 0.00 0.00 0.00 38 1030.4
20260504233549 10 266 4.8 4.8 0.00 0.00 0.00 38 1024.2
20260504233046 10 253 1.6 3.2 0.00 0.00 0.00 41 1024.1
20260504233005 10 162 1.6 3.2 0.00 0.00 0.00 41 1030.5
20260504232544 8 217 4.8 12.9 0.00 0.00 0.00 43 1024.3
20260504232504 8 171 12.9 14.5 0.00 0.00 0.00 42 1030.5
20260504232041 8 160 6.4 11.3 0.00 0.00 0.00 43 1024.1
20260504232005 9 53 8.0 9.7 0.00 0.00 0.00 42 1030.6
20260504231538 7 247 1.6 8.0 0.00 0.00 0.00 45 1024.1
20260504231034 8 178 9.7 12.9 0.00 0.00 0.00 41 1024.3
20260504231009 8 264 3.2 6.4 0.00 0.00 0.00 42 1030.6
20260504230530 8 253 3.2 4.8 0.00 0.00 0.00 42 1024.2
20260504230029 9 268 4.8 4.8 0.00 0.00 0.00 43 1024.1
20260504230006 8 292 0.0 3.2 0.00 0.00 0.00 45 1030.4
20260504225526 8 275 1.6 4.8 0.00 0.00 0.00 46 1023.9
20260504225505 8 238 4.8 14.5 0.00 0.00 0.00 46 1030.4
20260504225023 7 239 1.6 4.8 0.00 0.00 0.00 47 1024.0
20260504224520 7 208 4.8 8.0 0.00 0.00 0.00 50 1024.1
20260504224504 7 200 3.2 6.4 0.00 0.00 0.00 49 1030.2
20260504224017 7 253 1.6 3.2 0.00 0.00 0.00 50 1023.9
20260504223513 6 177 3.2 8.0 0.00 0.00 0.00 51 1023.5
20260504223009 6 177 4.8 4.8 0.00 0.00 0.00 54 1023.8
20260504223005 6 177 4.8 6.4 0.00 0.00 0.00 54 1030.1
20260504222506 6 235 1.6 3.2 0.00 0.00 0.00 56 1023.9
20260504222504 6 235 1.6 4.8 0.00 0.00 0.00 56 1030.2
20260504222005 6 274 1.6 4.8 0.00 0.00 0.00 57 1030.1
20260504221509 5 325 1.6 6.4 0.00 0.00 0.00 57 1030.2
20260504221501 5 325 1.6 4.8 0.00 0.00 0.00 57 1023.9
20260504220958 5 262 3.2 3.2 0.00 0.00 0.00 58 1023.8
20260504220454 5 159 1.6 4.8 0.00 0.00 0.00 59 1023.5
20260504220004 5 169 3.2 4.8 0.00 0.00 0.00 60 1030.0
20260504215951 5 169 1.6 3.2 0.00 0.00 0.00 60 1023.7
20260504215505 5 170 6.4 8.0 0.00 0.00 0.00 62 1029.7
20260504215447 5 170 4.8 8.0 0.00 0.00 0.00 62 1023.3
20260504215004 4 159 3.2 8.0 0.00 0.00 0.00 64 1029.9
20260504214944 4 159 1.6 8.0 0.00 0.00 0.00 64 1023.5
20260504214505 4 226 1.6 4.8 0.00 0.00 0.00 67 1029.9
20260504214441 4 226 0.0 3.2 0.00 0.00 0.00 67 1023.5
20260504214006 4 148 6.4 8.0 0.00 0.00 0.00 67 1029.7
20260504213937 4 148 4.8 8.0 0.00 0.00 0.00 67 1023.3
20260504213433 4 158 1.6 3.2 0.00 0.00 0.00 68 1023.2
20260504212931 3 177 3.2 4.8 0.00 0.00 0.00 69 1023.0
20260504212505 3 132 6.4 8.0 0.00 0.00 0.00 71 1029.3
20260504212426 3 132 6.4 8.0 0.00 0.00 0.00 71 1022.9
20260504211925 3 143 3.2 4.8 0.00 0.00 0.00 72 1022.9
20260504211420 3 172 1.6 4.8 0.00 0.00 0.00 73 1022.8
20260504210918 3 52 0.0 0.0 0.00 0.00 0.00 75 1022.3
20260504210415 2 62 0.0 0.0 0.00 0.00 0.00 75 1022.4
20260504210005 2 62 1.6 3.2 0.00 0.00 0.00 75 1029.0
20260504205912 2 62 1.6 1.6 0.00 0.00 0.00 75 1022.3
20260504205504 2 62 0.0 3.2 0.00 0.00 0.00 75 1028.8
20260504205410 2 62 0.0 1.6 0.00 0.00 0.00 75 1022.2
20260504205005 2 62 1.6 3.2 0.00 0.00 0.00 75 1028.5
20260504204908 2 161 1.6 3.2 0.00 0.00 0.00 75 1022.1
20260504204406 2 284 0.0 0.0 0.00 0.00 0.00 76 1022.0
20260504203905 2 284 0.0 1.6 0.00 0.00 0.00 75 1021.9
20260504203505 2 284 0.0 0.0 0.00 0.00 0.00 75 1028.6
20260504203402 2 284 0.0 1.6 0.00 0.00 0.00 75 1021.8
20260504203004 2 284 0.0 0.0 0.00 0.00 0.00 75 1028.3
20260504202857 2 284 0.0 0.0 0.00 0.00 0.00 75 1021.8
20260504202505 2 284 0.0 0.0 0.00 0.00 0.00 75 1028.0
20260504202355 2 284 0.0 1.6 0.00 0.00 0.00 75 1021.7
20260504202005 2 284 1.6 4.8 0.00 0.00 0.00 75 1028.2
20260504201851 2 284 0.0 3.2 0.00 0.00 0.00 75 1021.6
20260504201349 2 290 0.0 0.0 0.00 0.00 0.00 75 1021.5
20260504201004 2 291 0.0 0.0 0.00 0.00 0.00 75 1028.2
20260504200846 2 290 0.0 0.0 0.00 0.00 0.00 76 1021.8
20260504200343 2 280 0.0 0.0 0.00 0.00 0.00 76 1021.2
20260504200006 2 294 0.0 3.2 0.00 0.00 0.00 76 1027.8
20260504195839 2 294 0.0 1.6 0.00 0.00 0.00 76 1021.3
20260504195505 2 293 1.6 4.8 0.00 0.00 0.00 76 1027.6
20260504195334 2 300 1.6 3.2 0.00 0.00 0.00 76 1021.0
20260504195004 2 297 3.2 4.8 0.00 0.00 0.00 77 1027.6
20260504194832 2 298 1.6 3.2 0.00 0.00 0.00 76 1021.1
20260504194328 2 290 0.0 3.2 0.00 0.00 0.00 76 1021.2
20260504193824 2 286 1.6 3.2 0.00 0.00 0.00 76 1021.0
20260504193321 2 297 0.0 1.6 0.00 0.00 0.00 77 1020.8
20260504193005 2 296 4.8 4.8 0.00 0.00 0.00 76 1027.4
20260504192820 2 322 1.6 1.6 0.00 0.00 0.00 76 1020.8
20260504192504 2 320 0.0 0.0 0.00 0.00 0.00 76 1027.4
20260504192318 2 319 0.0 1.6 0.00 0.00 0.00 76 1020.8
20260504192005 2 303 4.8 4.8 0.00 0.00 0.00 76 1027.3
20260504191816 2 304 1.6 1.6 0.00 0.00 0.00 76 1020.5
20260504191313 2 300 3.2 3.2 0.00 0.00 0.00 76 1020.7
20260504190808 2 312 0.0 1.6 0.00 0.00 0.00 76 1020.5
20260504190505 2 314 0.0 3.2 0.00 0.00 0.00 76 1027.3
20260504190304 2 314 1.6 3.2 0.00 0.00 0.00 76 1020.7
20260504190004 2 315 0.0 3.2 0.00 0.00 0.00 76 1027.0
20260504185801 2 322 0.0 1.6 0.00 0.00 0.00 76 1020.6
20260504185505 2 327 0.0 0.0 0.00 0.00 0.00 76 1027.0
20260504185258 2 315 0.0 0.0 0.00 0.00 0.00 76 1020.3
20260504185004 2 314 0.0 0.0 0.00 0.00 0.00 76 1027.0
20260504184754 2 316 1.6 3.2 0.00 0.00 0.00 76 1020.1
20260504184250 2 297 0.0 0.0 0.00 0.00 0.00 76 1020.3
20260504184005 2 285 0.0 0.0 0.00 0.00 0.00 76 1026.7
20260504183746 2 281 0.0 0.0 0.00 0.00 0.00 75 1020.2
20260504183243 2 297 0.0 0.0 0.00 0.00 0.00 75 1020.1
20260504183004 2 292 0.0 0.0 0.00 0.00 0.00 75 1026.7
20260504182741 2 318 0.0 0.0 0.00 0.00 0.00 75 1019.8
20260504182505 2 356 0.0 0.0 0.00 0.00 0.00 75 1026.4
20260504182238 2 356 0.0 0.0 0.00 0.00 0.00 75 1019.9
20260504182004 2 356 0.0 0.0 0.00 0.00 0.00 75 1026.4
20260504181736 2 356 0.0 0.0 0.00 0.00 0.00 75 1019.8
20260504181505 2 357 0.0 0.0 0.00 0.00 0.00 74 1026.5
20260504181233 2 357 0.0 0.0 0.00 0.00 0.00 74 1019.4
20260504180732 2 356 0.0 1.6 0.00 0.00 0.00 74 1019.1
20260504180231 2 357 0.0 3.2 0.00 0.00 0.00 73 1019.5
20260504180004 2 358 0.0 0.0 0.00 0.00 0.00 73 1026.0
20260504175727 2 359 0.0 0.0 0.00 0.00 0.00 73 1019.4
20260504175505 2 359 0.0 3.2 0.00 0.00 0.00 73 1025.9
20260504175224 2 0 3.2 3.2 0.00 0.00 0.00 72 1019.1
20260504175004 2 345 1.6 4.8 0.00 0.00 0.00 72 1026.0
20260504174722 3 329 0.0 0.0 0.00 0.00 0.00 72 1019.0
20260504174505 3 328 1.6 3.2 0.00 0.00 0.00 72 1026.0
20260504174220 3 359 0.0 1.6 0.00 0.00 0.00 71 1019.1
20260504174005 3 359 0.0 0.0 0.00 0.00 0.00 71 1025.6
20260504173716 3 0 0.0 3.2 0.00 0.00 0.00 71 1019.0
20260504173504 3 302 1.6 3.2 0.00 0.00 0.00 70 1025.6
20260504173213 3 307 0.0 1.6 0.00 0.00 0.00 70 1018.7
20260504173004 3 307 1.6 4.8 0.00 0.00 0.00 70 1025.6
20260504172710 3 225 0.0 3.2 0.00 0.00 0.00 70 1018.4
20260504172206 3 283 0.0 0.0 0.00 0.00 0.00 69 1018.6
20260504171703 3 285 1.6 1.6 0.00 0.00 0.00 68 1018.6
20260504171200 3 271 0.0 1.6 0.00 0.00 0.00 68 1018.6
20260504170656 3 273 3.2 3.2 0.00 0.00 0.00 67 1018.5
20260504170505 3 243 1.6 4.8 0.00 0.00 0.00 67 1025.3
20260504170154 3 219 0.0 1.6 0.00 0.00 0.00 66 1018.4
20260504160112 5 289 6.4 8.0 0.00 0.00 0.00 62 1017.3
20260504151039 6 270 3.2 9.7 0.00 0.00 0.00 50 1016.1
20260504151005 6 185 3.2 9.7 0.00 0.00 0.00 49 1023.2
20260504150537 6 281 6.4 8.0 0.00 0.00 0.00 53 1015.9
20260504141003 7 301 4.8 8.0 0.00 1.14 1.14 47 1014.7
20260504140459 7 258 4.8 4.8 0.00 1.14 1.14 45 1014.7
20260504130505 8 279 8.0 11.3 0.00 0.00 1.12 46 1020.3
20260504130424 8 270 9.7 11.3 0.00 1.14 1.14 46 1013.3
20260504110505 10 258 0.0 3.2 0.00 0.00 1.12 43 1017.7
20260504110311 10 258 0.0 0.0 0.00 1.14 1.14 43 1010.2
20260504100229 11 271 6.4 11.3 0.00 1.14 1.14 35 1008.3
20260504082004 14 299 3.2 6.4 0.00 0.00 1.12 40 1015.0
20260504081622 14 281 3.2 11.3 0.00 1.14 1.14 40 1007.2
20260504081118 14 343 4.8 4.8 0.00 1.14 1.14 40 1006.8
20260504081005 14 293 3.2 8.0 0.00 0.00 1.12 40 1014.6
20260504080615 15 297 4.8 4.8 0.00 1.14 1.14 41 1006.7
20260504080505 15 297 6.4 6.4 0.00 0.00 1.12 41 1014.6
20260504080111 15 254 3.2 12.9 0.00 1.14 1.14 40 1006.5